Content
SEND FEEDBACK

Daily
Averages
Monthly
Summary
Canada

MONTREAL, QUEBEC


Home > North America > Canada > Quebec
Elevation: 118 feet     Latitude: 45 28N     Longitude: 073 45W

WEATHER
 
SELECT A DAY
Number of Records: 201,481;   Date Range: 1/1/95 - 10/22/14
 
SHARE

PRINT THIS DATA

[ ← Previous Day ]
WEATHER ALMANAC - AUGUST 18, 2013
[ Next Day → ]
[ °C ]   °F
Weather ElementAverageHighLow
Temperature70.1 °F80.6 °F (3:00 pm)59 °F (4:00 am)
Dewpoint56.9 °F60.8 °F (11:00 am)51.8 °F (4:00 pm)
Humidity63.7 %88 % (4:00 am)37 % (4:00 pm)
Barometer30.17 in30.25 in (1:00 am)30.04 in (10:00 pm)
Wind Speed9.5 mph18.4 mph (4:00 pm)
Wind Gust19.6 mph (1:00 pm)
Weather ElementAverage
Visibility21 mi
Wind DirectionSSW (212.6 °)

Weather ElementTotal
Precipitation---
Cooling Degree Days4.8 (Base 65)
Growing Degree Days19.8 (Base 50)
Averaged from 27 records on August 18, 2013
WEATHER CONDITIONS BREAKOUT
WIND DIRECTION BREAKOUT
WEATHER BY HOUR - AUGUST 18, 2013
[ °C ]   °F
Local TimeTemperatureDewpointHumidityBarometerVisibilityWind DirectionWind SpeedGust SpeedPrecipitationEventsConditions
1:00 AM64.4 °F53.6 °F68 %30.25 in15.0 miSE (140°)3.5 mphClear
2:00 AM62.0 °F55.0 °F71 %30.25 in15.0 miSouth (180°)4.6 mph
2:00 AM62.6 °F55.4 °F77 %30.25 in15.0 miSouth (190°)5.8 mphClear
3:00 AM60.8 °F55.4 °F82 %30.24 in15.0 miSSW (210°)5.8 mphClear
4:00 AM59.0 °F55.4 °F88 %30.24 in15.0 miWest (270°)2.3 mphClear
5:00 AM59.0 °F53.6 °F82 %30.24 in15.0 miSW (230°)4.6 mphClear
6:00 AM59.0 °F55.4 °F88 %30.24 in15.0 miSSW (210°)2.3 mphScattered Clouds
7:00 AM60.8 °F57.2 °F88 %30.24 in15.0 miWSW (250°)2.3 mphScattered Clouds
8:00 AM65.0 °F59.0 °F76 %30.25 in15.0 miSSW (210°)4.6 mphClear
8:00 AM64.4 °F59.0 °F83 %30.25 in15.0 miSouth (190°)4.6 mphScattered Clouds
9:00 AM66.2 °F57.2 °F73 %30.25 in15.0 miSSW (210°)9.2 mphPartly Cloudy
10:00 AM69.8 °F59.0 °F68 %30.24 in30.0 miSSW (200°)10.4 mphPartly Cloudy
11:00 AM71.6 °F60.8 °F69 %30.23 in30.0 miSSW (210°)11.5 mphPartly Cloudy
12:00 PM77.0 °F59.0 °F54 %30.21 in30.0 miSSW (210°)15.0 mphScattered Clouds
1:00 PM77.0 °F60.8 °F57 %30.19 in30.0 miSSW (210°)13.8 mph19.6 mphMostly Cloudy
2:00 PM79.0 °F60.0 °F41 %30.17 in28.0 miSSW (210°)15.0 mphScattered Clouds
2:00 PM78.8 °F59.0 °F51 %30.17 in30.0 miSSW (210°)13.8 mphMostly Cloudy
3:00 PM80.6 °F59.0 °F48 %30.14 in30.0 miSSW (210°)13.8 mphScattered Clouds
4:00 PM80.6 °F51.8 °F37 %30.12 in30.0 miSW (220°)18.4 mphScattered Clouds
5:00 PM78.8 °F51.8 °F39 %30.10 in30.0 miSW (220°)18.4 mphPartly Cloudy
6:00 PM78.8 °F51.8 °F39 %30.09 in30.0 miSW (220°)13.8 mphPartly Cloudy
7:00 PM77.0 °F57.2 °F50 %30.07 in30.0 miSW (220°)13.8 mphPartly Cloudy
8:00 PM74.0 °F58.0 °F47 %30.06 in15.0 miSW (220°)9.2 mphClear
8:00 PM73.4 °F57.2 °F57 %30.06 in15.0 miSW (220°)10.4 mphPartly Cloudy
9:00 PM71.6 °F59.0 °F64 %30.05 in15.0 miSW (220°)8.1 mphPartly Cloudy
10:00 PM71.6 °F59.0 °F64 %30.04 in15.0 miSW (220°)11.5 mphPartly Cloudy
11:00 PM69.8 °F55.4 °F60 %30.04 in15.0 miSW (230°)10.4 mphClear
Hourly data recorded from CYUL, located miles away from Montreal, Quebec







STORIES FROM OUR PARTNERS